Location: Sungai Bunut
(2.6333°N, 113.7333°E)
Time: 19:05:57
(UTC+00:00)

S-56A Canister/Altair - Pass Details

Date: 05 December 2023
Orbit: 640 x 2488 km, 38.9° (Epoch: 20 February)

Event Time Altitude Azimuth Distance (km) Brightness Sun altitude
Rises 20:37:38 0° 201° (SSW) 5,929 12.1 -23.6°
Reaches altitude 10° 20:48:07 10° 162° (SSE) 4,383 11.9 -21.2°
Maximum altitude 20:49:04 10° 158° (SSE) 4,312 11.9 -21.0°
Drops below altitude 10° 20:50:00 10° 153° (SSE) 4,258 12.0 -20.8°
Sets 20:58:12 0° 112° (ESE) 4,611 13.2 -18.9°
